Hourly Weather Kragle

Today, 22 October, Thursday

Time Temperature Precipitation Wind Pressure Humidity
00:00 +10°C° 0 mm 3 mps 746 mmHg 75%
01:00 +10°C° 0 mm 4 mps 746 mmHg 75%
02:00 +10°C° 0 mm 4 mps 746 mmHg 76%
03:00 +8°C° 0 mm 4 mps 745 mmHg 78%
04:00 +8°C° 0 mm 4 mps 745 mmHg 81%
05:00 +7°C° 0 mm 4 mps 745 mmHg 83%
06:00 +8°C° 0 mm 4 mps 745 mmHg 82%
07:00 +8°C° 0 mm 5 mps 745 mmHg 82%
08:00 +8°C° 0 mm 5 mps 745 mmHg 81%
09:00 +10°C° 0 mm 5 mps 745 mmHg 75%
10:00 +13°C° 0 mm 6 mps 745 mmHg 69%
11:00 +14°C° 0 mm 6 mps 746 mmHg 64%
12:00 +15°C° 0 mm 6 mps 746 mmHg 62%
13:00 +16°C° 0 mm 6 mps 746 mmHg 60%
14:00 +17°C° 0 mm 6 mps 746 mmHg 58%
15:00 +16°C° 0 mm 5 mps 746 mmHg 63%
16:00 +17°C° 0 mm 4 mps 746 mmHg 67%
17:00 +15°C° 0 mm 4 mps 746 mmHg 72%
18:00 +14°C° 0 mm 3 mps 746 mmHg 76%
19:00 +13°C° 0 mm 3 mps 746 mmHg 80%
20:00 +12°C° 0 mm 3 mps 746 mmHg 84%
21:00 +12°C° 0 mm 3 mps 746 mmHg 84%
22:00 +12°C° 0 mm 3 mps 746 mmHg 85%
23:00 +12°C° 0 mm 3 mps 746 mmHg 86%

Tomorrow, 23 October, Friday

Time Temperature Precipitation Wind Pressure Humidity
00:00 +12°C° 0 mm 3 mps 746 mmHg 86%
01:00 +12°C° 0 mm 3 mps 747 mmHg 86%
02:00 +11°C° 0 mm 3 mps 747 mmHg 86%
03:00 +11°C° 0 mm 3 mps 746 mmHg 86%
04:00 +11°C° 0 mm 3 mps 746 mmHg 86%
05:00 +12°C° 0 mm 3 mps 745 mmHg 85%
06:00 +12°C° 0 mm 4 mps 745 mmHg 84%
07:00 +12°C° 0 mm 4 mps 745 mmHg 83%
08:00 +12°C° 0 mm 4 mps 745 mmHg 82%
09:00 +13°C° 0 mm 4 mps 745 mmHg 78%
10:00 +14°C° 0 mm 5 mps 744 mmHg 74%
11:00 +15°C° 0 mm 5 mps 744 mmHg 70%
12:00 +15°C° 0 mm 5 mps 744 mmHg 72%
13:00 +15°C° 0 mm 5 mps 744 mmHg 74%
14:00 +15°C° 0 mm 4 mps 744 mmHg 76%
15:00 +14°C° 0 mm 4 mps 744 mmHg 80%
16:00 +14°C° 0 mm 3 mps 744 mmHg 83%
17:00 +13°C° 0 mm 3 mps 744 mmHg 87%
18:00 +14°C° 0 mm 2 mps 744 mmHg 89%
19:00 +13°C° 0 mm 2 mps 744 mmHg 91%
20:00 +13°C° 0 mm 2 mps 745 mmHg 93%
21:00 +12°C° 0 mm 2 mps 745 mmHg 93%
22:00 +12°C° 0 mm 2 mps 745 mmHg 94%
23:00 +12°C° 0 mm 1 mps 745 mmHg 94%

Day after tomorrow, 24 October, Saturday

Time Temperature Precipitation Wind Pressure Humidity
00:00 +12°C° 0 mm 1 mps 745 mmHg 94%
01:00 +12°C° 0 mm 1 mps 744 mmHg 94%
02:00 +11°C° 0 mm 1 mps 744 mmHg 94%
03:00 +12°C° 0.1 mm 2 mps 744 mmHg 95%
04:00 +12°C° 0.1 mm 2 mps 744 mmHg 95%
05:00 +12°C° 0.1 mm 2 mps 743 mmHg 95%
06:00 +11°C° 0.5 mm 3 mps 743 mmHg 94%
07:00 +11°C° 0.5 mm 3 mps 743 mmHg 94%
08:00 +11°C° 0.5 mm 3 mps 742 mmHg 94%
09:00 +11°C° 1.6 mm 4 mps 742 mmHg 94%
10:00 +11°C° 1.6 mm 4 mps 742 mmHg 94%
11:00 +11°C° 1.6 mm 4 mps 742 mmHg 94%
12:00 +10°C° 0.8 mm 5 mps 742 mmHg 92%
13:00 +12°C° 0.8 mm 5 mps 742 mmHg 89%
14:00 +11°C° 0.8 mm 6 mps 743 mmHg 87%
15:00 +12°C° 0 mm 5 mps 743 mmHg 86%
16:00 +11°C° 0 mm 4 mps 743 mmHg 86%
17:00 +11°C° 0 mm 3 mps 744 mmHg 85%
18:00 +11°C° 0 mm 3 mps 744 mmHg 87%
19:00 +11°C° 0 mm 3 mps 745 mmHg 89%
20:00 +11°C° 0 mm 3 mps 746 mmHg 92%
21:00 +10°C° 0 mm 3 mps 746 mmHg 92%
22:00 +10°C° 0 mm 3 mps 746 mmHg 93%
23:00 +10°C° 0 mm 4 mps 747 mmHg 93%

, 25 October, Sunday

Time Temperature Precipitation Wind Pressure Humidity
00:00 +9°C° 0 mm 3 mps 747 mmHg 93%
01:00 +9°C° 0 mm 3 mps 747 mmHg 93%
02:00 +9°C° 0 mm 3 mps 747 mmHg 93%
03:00 +8°C° 0 mm 3 mps 747 mmHg 93%
04:00 +8°C° 0 mm 3 mps 748 mmHg 93%
05:00 +7°C° 0 mm 2 mps 748 mmHg 94%
06:00 +7°C° 0 mm 2 mps 748 mmHg 94%
07:00 +7°C° 0 mm 2 mps 748 mmHg 94%
08:00 +7°C° 0 mm 2 mps 748 mmHg 94%
09:00 +9°C° 0 mm 2 mps 749 mmHg 88%
10:00 +10°C° 0 mm 2 mps 749 mmHg 83%
11:00 +13°C° 0 mm 2 mps 749 mmHg 77%
12:00 +13°C° 0 mm 2 mps 749 mmHg 74%
13:00 +14°C° 0 mm 2 mps 749 mmHg 71%
14:00 +15°C° 0 mm 2 mps 749 mmHg 68%
15:00 +14°C° 0 mm 2 mps 749 mmHg 73%
16:00 +13°C° 0 mm 1 mps 749 mmHg 77%
17:00 +12°C° 0 mm 1 mps 749 mmHg 81%
18:00 +12°C° 0 mm 1 mps 749 mmHg 83%
19:00 +10°C° 0 mm 2 mps 749 mmHg 85%
20:00 +10°C° 0 mm 2 mps 749 mmHg 87%
21:00 +10°C° 0 mm 2 mps 749 mmHg 87%
22:00 +9°C° 0 mm 2 mps 749 mmHg 88%
23:00 +9°C° 0 mm 3 mps 749 mmHg 88%

25 October, Sunday

Time Temperature Precipitation Wind Pressure Humidity
00:00 +9°C° 0 mm 3 mps 747 mmHg 93%
01:00 +9°C° 0 mm 3 mps 747 mmHg 93%
02:00 +9°C° 0 mm 3 mps 747 mmHg 93%
03:00 +8°C° 0 mm 3 mps 747 mmHg 93%
04:00 +8°C° 0 mm 3 mps 748 mmHg 93%
05:00 +7°C° 0 mm 2 mps 748 mmHg 94%
06:00 +7°C° 0 mm 2 mps 748 mmHg 94%
07:00 +7°C° 0 mm 2 mps 748 mmHg 94%
08:00 +7°C° 0 mm 2 mps 748 mmHg 94%
09:00 +9°C° 0 mm 2 mps 749 mmHg 88%
10:00 +10°C° 0 mm 2 mps 749 mmHg 83%
11:00 +13°C° 0 mm 2 mps 749 mmHg 77%
12:00 +13°C° 0 mm 2 mps 749 mmHg 74%
13:00 +14°C° 0 mm 2 mps 749 mmHg 71%
14:00 +15°C° 0 mm 2 mps 749 mmHg 68%
15:00 +14°C° 0 mm 2 mps 749 mmHg 73%
16:00 +13°C° 0 mm 1 mps 749 mmHg 77%
17:00 +12°C° 0 mm 1 mps 749 mmHg 81%
18:00 +12°C° 0 mm 1 mps 749 mmHg 83%
19:00 +10°C° 0 mm 2 mps 749 mmHg 85%
20:00 +10°C° 0 mm 2 mps 749 mmHg 87%
21:00 +10°C° 0 mm 2 mps 749 mmHg 87%
22:00 +9°C° 0 mm 2 mps 749 mmHg 88%
23:00 +9°C° 0 mm 3 mps 749 mmHg 88%

26 October, Monday

Time Temperature Precipitation Wind Pressure Humidity
00:00 +9°C° 0 mm 3 mps 749 mmHg 88%
01:00 +8°C° 0 mm 3 mps 749 mmHg 89%
02:00 +8°C° 0 mm 3 mps 749 mmHg 89%
03:00 +8°C° 0 mm 3 mps 749 mmHg 89%
04:00 +7°C° 0 mm 3 mps 749 mmHg 90%
05:00 +6°C° 0 mm 4 mps 748 mmHg 90%
06:00 +6°C° 0 mm 4 mps 748 mmHg 90%
07:00 +6°C° 0 mm 4 mps 748 mmHg 90%
08:00 +6°C° 0 mm 4 mps 748 mmHg 89%
09:00 +8°C° 0 mm 5 mps 748 mmHg 85%
10:00 +9°C° 0 mm 5 mps 748 mmHg 80%
11:00 +10°C° 0 mm 6 mps 748 mmHg 76%
12:00 +11°C° 0 mm 6 mps 747 mmHg 73%
13:00 +13°C° 0 mm 6 mps 747 mmHg 70%
14:00 +14°C° 0 mm 6 mps 747 mmHg 67%
15:00 +13°C° 0 mm 6 mps 746 mmHg 70%
16:00 +13°C° 0 mm 5 mps 746 mmHg 73%
17:00 +12°C° 0 mm 5 mps 746 mmHg 77%
18:00 +12°C° 0 mm 5 mps 746 mmHg 78%
19:00 +10°C° 0 mm 5 mps 746 mmHg 79%
20:00 +10°C° 0 mm 6 mps 746 mmHg 80%
21:00 +10°C° 0 mm 5 mps 745 mmHg 80%
22:00 +10°C° 0 mm 5 mps 745 mmHg 80%
23:00 +9°C° 0 mm 5 mps 745 mmHg 81%

27 October, Tuesday

Time Temperature Precipitation Wind Pressure Humidity
00:00 +9°C° 0 mm 5 mps 745 mmHg 81%
01:00 +9°C° 0 mm 5 mps 745 mmHg 81%
02:00 +9°C° 0 mm 5 mps 745 mmHg 81%
03:00 +8°C° 0 mm 5 mps 745 mmHg 82%
04:00 +8°C° 0 mm 5 mps 745 mmHg 84%
05:00 +8°C° 0 mm 4 mps 745 mmHg 85%
06:00 +8°C° 0 mm 4 mps 745 mmHg 87%
07:00 +8°C° 0 mm 4 mps 745 mmHg 89%
08:00 +8°C° 0 mm 4 mps 745 mmHg 92%
09:00 +10°C° 0 mm 4 mps 746 mmHg 87%
10:00 +12°C° 0 mm 4 mps 746 mmHg 82%
11:00 +13°C° 0 mm 4 mps 746 mmHg 78%
12:00 +14°C° 0 mm 4 mps 746 mmHg 75%
13:00 +15°C° 0 mm 4 mps 746 mmHg 72%
14:00 +17°C° 0 mm 4 mps 746 mmHg 69%
15:00 +15°C° 0 mm 4 mps 746 mmHg 73%
16:00 +14°C° 0 mm 3 mps 746 mmHg 77%
17:00 +13°C° 0 mm 3 mps 746 mmHg 81%
18:00 +13°C° 0 mm 3 mps 746 mmHg 84%
19:00 +12°C° 0 mm 3 mps 747 mmHg 87%
20:00 +12°C° 0 mm 3 mps 747 mmHg 90%
21:00 +12°C° 0 mm 2 mps 747 mmHg 91%
22:00 +12°C° 0 mm 2 mps 747 mmHg 93%
23:00 +12°C° 0 mm 2 mps 748 mmHg 94%
Show more